Regional Weather Roundup
Issued by NWS

Home | Current Version | Previous Version | Graphics & Text | Print | Product List | Glossary Off
Versions: 1 2 3 4 5 6 7 8 9 10 11 12 13 14 15 16 17 18 19 20 21 22 23 24 25 26 27 28 29 30 31 32 33 34 35 36 37 38 39 40 41 42 43 44 45 46

000
ASUS45 KCYS 031810
RWRWY

WYOMING REGIONAL WEATHER ROUNDUP
NATIONAL WEATHER SERVICE CHEYENNE WY
1200 PM MDT MON AUG 03 2015

NOTE:  "FAIR" INDICATES FEW OR NO CLOUDS BELOW 12,000 FEET
WITH NO SIGNIFICANT WEATHER AND/OR OBSTRUCTIONS TO VISIBILITY.

WYZ001-031900-
YELLOWSTONE NATIONAL PARK

CITY           SKY/WX    TMP DP  RH WIND       PRES   REMARKS
LK YELLOWSTONE   N/A     65  45  48 SE5       30.26S
6HR MIN TEMP:  45; 6HR MAX TEMP:  67;

W YELLOWSTONE  NOT AVBL

$$
WYZ002>013-054>058-071-098>099-031900-
NORTHERN WYOMING

CITY           SKY/WX    TMP DP  RH WIND       PRES   REMARKS
JACKSON        SUNNY     70  43  37 CALM      30.16S
CODY           FAIR      73  52  46 NE5       30.06F
GREYBULL       FAIR      83  45  26 VRB7      29.97F
6HR MIN TEMP:  56; 6HR MAX TEMP:  83;

WORLAND        FAIR      80  42  25 VRB3      30.00F
6HR MIN TEMP:  60; 6HR MAX TEMP:  81;

SHERIDAN       FAIR      87  53  31 SE13G18   29.99F
6HR MIN TEMP:  51; 6HR MAX TEMP:  87;

BUFFALO        FAIR      85  50  29 SE13G21   30.08S
6HR MIN TEMP:  62; 6HR MAX TEMP:  85;

GILLETTE       FAIR      82  55  39 E9G20     30.05F
6HR MIN TEMP:  52; 6HR MAX TEMP:  82;

HULETT         FAIR      79  55  44 N7        30.07F
NEWCASTLE      FAIR      81  50  34 MISG      30.05F

$$
WYZ014>020-022>026-101>103-031900-
CENTRAL WYOMING

CITY           SKY/WX    TMP DP  RH WIND       PRES   REMARKS
BIG PINEY      CLOUDY    63  51  65 W9        30.23F
6HR MIN TEMP:  52; 6HR MAX TEMP:  67; 6HR PCP: TRACE;

PINEDALE       MOCLDY    64  45  48 SW5       30.24F
DUBOIS         NOT AVBL
LANDER         FAIR      78  45  30 VRB6      30.08F
6HR MIN TEMP:  59; 6HR MAX TEMP:  79;

RIVERTON       FAIR      77  47  34 W7        30.09F
6HR MIN TEMP:  62; 6HR MAX TEMP:  77;

CASPER         FAIR      81  49  32 VRB5      30.08F
6HR MIN TEMP:  55; 6HR MAX TEMP:  82;

DOUGLAS        FAIR      81  52  36 MISG      30.08F
6HR MIN TEMP:  56; 6HR MAX TEMP:  82;


$$
WYZ021-027>030-104>119-031900-
SOUTHERN WYOMING

CITY           SKY/WX    TMP DP  RH WIND       PRES   REMARKS
EVANSTON       CLOUDY    58  53  84 N7        30.19S
6HR MIN TEMP:  54; 6HR MAX TEMP:  60; 6HR PCP:  0.15;

KEMMERER       LGT RAIN  55  52  88 E6        30.21F
FORT BRIDGER   RAIN      57  57 100 N7        30.20S
ROCK SPRINGS   PTSUNNY   64  55  72 SE15      30.17F
6HR MIN TEMP:  56; 6HR MAX TEMP:  64; 6HR PCP:  0.01;

DIXON          MOCLDY    71  49  45 S8        30.22F
RAWLINS        FAIR      67  47  48 W9        30.21F
6HR MIN TEMP:  59; 6HR MAX TEMP:  70; 6HR PCP: TRACE;

SARATOGA       FAIR      73  43  33 CALM      30.22S
LARAMIE        FAIR      78  42  27 VRB3      30.20F
6HR MIN TEMP:  55; 6HR MAX TEMP:  79;

CHEYENNE       FAIR      84  40  21 S13G25    30.14S
6HR MIN TEMP:  59; 6HR MAX TEMP:  86;

TORRINGTON     FAIR      79  57  46 SE8       30.02F
6HR MIN TEMP:  58; 6HR MAX TEMP:  79;

PINE BLUFFS    FAIR      86  48  26 S8        30.10S

$$



USA.gov is the U.S. government's official web portal to all federal, state and local government web resources and services.